Вернуться в каталог

STARLINK-36056

АктивенСвязьVLEO
NORAD 67206·PAYLOAD·🇺🇸 United States

Запущен Dec 17, 2025 с Vandenberg Space Force Base

Loading…

Ближайшие Пролёты (ближайшие 24 часа)

TLE

СвежийSource: CelesTrak SupGP

Эпоха: Sep 15, 2026, 04:18 UTC

1 67206C 25304Q   26258.17965278 -.00005708  00000+0 -47827-3 0  2583
2 67206  70.0011  56.8344 0003485 270.6060 123.3230 14.98336359    19

Отслеживайте STARLINK-36056 в реальном времени с AllMySat

Download on the App Store